Location: Castle Hill Houses
(40.8186°N, 73.8497°W)
Time: 06:27:44
(UTC+00:00)

FENGYUN 3A - Pass Details

Date: 26 January 2020
Orbit: 824 x 836 km, 98.4° (Epoch: 23 February)

Event Time Altitude Azimuth Distance (km) Brightness Sun altitude
Rises 09:47:49 0° 18° (NNE) 3,378 7.0 -27.1°
Reaches altitude 10° 09:50:14 10° 23° (NNE) 2,443 6.3 -26.6°
Maximum altitude 09:55:31 52° 100° (E) 1,028 4.4 -25.7°
Drops below altitude 10° 10:00:46 10° 176° (S) 2,433 6.2 -24.7°
Sets 10:03:11 0° 181° (S) 3,364 6.9 -24.2°
